Regional Weather Roundup
Issued by NWS Grand Forks, ND

Home | Current Version | Previous Version | Graphics & Text | Print | Product List | Glossary On
Versions: 1 2 3 4 5 6 7 8 9 10 11 12 13 14 15 16 17 18 19 20 21 22 23 24 25 26 27 28 29 30 31 32 33 34 35 36 37 38 39 40 41 42 43 44 45 46 47 48 49 50
000
ASUS43 KFGF 200310
RWRFGF
PRAIRIE TO PINES  WEATHER ROUNDUP
NATIONAL WEATHER SERVICE EASTERN NORTH DAKOTA/GRAND FORKS ND
1000 PM CDT FRI SEP 19 2014

 **SATELLITE DATA USED TO AUGMENT SKY COVER AT AUTOMATED STATIONS**
 *****  WEATHER ACROSS EASTERN NORTH DAKOTA  *****

CITY           SKY/WX    TMP DP  RH WIND       PRES   REMARKS
GRAND FORKS    MOCLDY    63  56  78 N14       29.63R
GRAND FRKS AFB MOCLDY    62  58  84 N14       29.65R
GRAND FRKS NWS   N/A     61 N/A N/A N9          N/A
DEVILS LAKE    MOCLDY    64  54  68 N9        29.69R
FARGO          MOCLDY    71  55  56 W14       29.60R
WAHPETON ARPT  PTCLDY    68  59  73 W9        29.64S
$$

 ***** WEATHER ACROSS CENTRAL AND WESTERN NORTH DAKOTA  *****

CITY           SKY/WX    TMP DP  RH WIND       PRES   REMARKS
BISMARCK       MOCLDY    68  54  60 NW10      29.79R
MINOT          CLEAR     63  53  70 W12       29.76R
JAMESTOWN      CLOUDY    67  56  67 NW14      29.71R
MINOT AFB      CLEAR     77  55  47 NW25      29.58S
GARRISON         N/A     57  52  83 NW8       29.79R
WILLISTON      PTCLDY    57  49  74 N3        29.80R
DICKINSON      CLEAR     57  50  77 W7        29.84R
HETTINGER      PTCLDY    55  48  77 W5        29.88R
$$

 *****  OTHER AIRPORT OBSERVATIONS IN OUR AREA  *****

CITY           SKY/WX    TMP DP  RH WIND       PRES   REMARKS
WALHALLA         N/A     57  55  94 NW15G21   29.68R
GRAFTON AIRPOR FAIR      61  54  77 N16       29.64R
VALLEY CITY AR FAIR      66  55  68 W10       29.68R
CANDO          FAIR      57  55  94 N6        29.72R
CAVALIER APRT  FAIR      59  54  82 NW13G21   29.66R
GWINNER        CLEAR     70  54  56 W10       29.69R
SHEYENNE NWR     N/A     69  54  58 W7        29.95S
ROLLA          FAIR      55  54  94 NW7       29.74R
 ***** THE ABOVE OBSERVATIONS ARE NON NWS ARE NOT QUALITY
       CONTROLLED AND MAY MIS-REPORT RAIN FOR SNOW...
$$

  *****  WEATHER ACROSS NORTHERN MINNESOTA  *****

CITY           SKY/WX    TMP DP  RH WIND       PRES   REMARKS
FLAG ISLAND    CLOUDY    61  61 100 W5        29.55S
WARROAD        CLOUDY    57  55  94 NW5       29.58R
ROSEAU         LGT RAIN  61  55  82 W3        29.59R
HALLOCK        MOCLDY    61  57  88 NW13      29.63R
THF RVR FALLS  MOCLDY    64  59  82 NW14      29.59R
BAUDETTE       RAIN      61  59  93 NW9       29.55S FOG
WASKISH        MOCLDY    64  63  94 CALM      29.55R
CROOKSTON      MOCLDY    63  59  88 N15G23    29.62R
STEPHEN NDAWN    N/A     63  57  82 N15         N/A
GREENBUSH NDAW   N/A     61  61 100 NW9         N/A
$$
  *****  WEATHER ACROSS CENTRAL AND WEST MINNESOTA  *****

CITY           SKY/WX    TMP DP  RH WIND       PRES   REMARKS
FOSSTON        PTCLDY    64  61  88 SW8       29.59R
BEMIDJI        PTCLDY    63  61  96 S7        29.57F
PARK RAPIDS    PTCLDY    64  63  96 S5        29.62S
ELBOW LAKE     FAIR      65  63  94 SW9       29.65S
WADENA         PTCLDY    63  61  94 SW6       29.63F FOG
DETROIT LAKES  PTCLDY    68  63  83 SW13      29.63S
MOORHEAD       MOCLDY    72  57  60 W13       29.62R
FERGUS FALLS   PTCLDY    66  63  88 SW7       29.65R
MORRIS MN      CLEAR     68  64  88 SW8       29.66S
STAPLES        CLEAR     61  61 100 S5        29.64S FOG
$$
  *****  WEATHER ELSEWHERE ACROSS MINNESOTA  *****

CITY           SKY/WX    TMP DP  RH WIND       PRES   REMARKS
DULUTH         CLOUDY    63  61  93 W6        29.64S FOG
INTRNTL FALLS  CLOUDY    61  60  97 SE6       29.55F FOG
ELY            CLOUDY    61  57  88 SW6       29.62F
CLOQUET        CLOUDY    63  61  94 W3        29.64F FOG
WHEATON        CLEAR     66  63  88 SW8       29.68R
BRAINERD       FOG       60  60 100 S5        29.65S VSB 1/4
HIBBING        CLOUDY    63  60  90 S5        29.62F
ALEXANDRIA     CLEAR     66  64  93 SW8       29.68S
SAINT CLOUD    FOG       61  59  93 CALM      29.66S VSB 1/4
MINNEAPOLIS    MOCLDY    72  64  76 S6        29.67S
$$

  *****  WEATHER ACROSS SOUTH DAKOTA  *****

CITY           SKY/WX    TMP DP  RH WIND       PRES   REMARKS
SIOUX FALLS    CLOUDY    75  64  68 NW5       29.72F
BROOKINGS      NOT AVBL
WATERTOWN      CLEAR     64  61  90 SW7       29.73S
HURON          CLEAR     64  57  78 W5        29.74R
SISSETON         N/A     72  58  61 W12       29.67R
ABERDEEN       PTCLDY    70  54  56 W7        29.73R
MITCHELL       PTCLDY    72  61  68 NW8       29.74S
PIERRE         MOCLDY    69  53  56 NW8       29.79R
MOBRIDGE       CLOUDY    67  55  65 W3        29.77R
RAPID CITY     PTCLDY    66  48  52 N9        29.93R
$$

  *****  SOME WEATHER IN NEARBY STATES *****

CITY           SKY/WX    TMP DP  RH WIND       PRES   REMARKS
GLASGOW MT     CLEAR     64  52  64 CALM      29.84R
GREAT FALLS MT CLEAR     63  40  42 W17       29.98R
CHEYENNE WY    PTCLDY    68  40  35 NW5       30.10R
SCOTTSBLUFF NE PTCLDY    68  51  54 NE10      29.94R
OMAHA NE       PTCLDY    75  68  78 S16       29.81S
DES MOINES IA  PTCLDY    71  66  84 S15       29.86R
DAVENPORT IA   CLEAR     67  54  63 S15       29.92F
CHICAGO IL     PTCLDY    65  47  52 S13       29.95F
EAU CLAIRE WI  LGT RAIN  70  61  73 S16G24    29.72R
LA CROSSE WI   CLOUDY    70  58  65 S13       29.80S
$$

  *****  SOME NATIONAL WEATHER *****

CITY           SKY/WX    TMP DP  RH WIND       PRES   REMARKS
LA GUARDIA NY  MOCLDY    60  47  61 SE12      30.38S
RALEIGH NC     CLEAR     66  57  72 E6        30.24R
ATLANTA GA     PTCLDY    72  65  78 E14       30.14R
NEW ORLEANS LA CLEAR     79  68  69 E6        29.96R
OKLAHOMA CITY  CLEAR     74  66  76 SE8       29.98R
ALBUQUERQUE NM PTCLDY    73  57  57 SE7       30.06R
SALT LAKE CITY PTCLDY    72  56  57 CALM      30.04R
LOS ANGELES CA CLEAR     69  61  75 W7        29.85S
BOISE ID       CLEAR     70  45  40 NW5       30.02R
SEATTLE WA     PTCLDY    67  56  67 N8        30.09R
$$

*** WEATHER ACROSS MANITOBA...SASKATCHEWAN AND ONTARIO ***
                ***ONTARIO***

CITY           SKY/WX    TMP DP  RH WIND       PRES   REMARKS
GERALDTON      LGT RAIN  54  52  94 SW9       29.54F FOG
THUNDER BAY    CLOUDY    59  57  94 W3        29.58F
SIOUX LOOKOUT  NOT AVBL
TORONTO        PTCLDY    54  50  87 E3        30.11F
BIG TROUT LK   CLOUDY    46  43  87 N6        29.54S
PICKLE LAKE    NOT AVBL
DRYDEN         CLOUDY    61  61 100 W7        29.54F FOG
KENORA         LGT RAIN  61  61 100 NW7       29.55F FOG
$$
                *** MANITOBA***

CITY           SKY/WX    TMP DP  RH WIND       PRES   REMARKS
BRANDON        CLOUDY    57  54  88 E5        29.71R
DAUPHIN        MOCLDY    54  52  94 CALM      29.72R
ISLAND LAKE    CLOUDY    50  46  87 CALM      29.62R
PILOT MOUND    NOT AVBL
THE PAS        CLOUDY    50  46  87 SE3       29.64S
THOMPSON       MOCLDY    32  32 100 W2        29.65R
WINNIPEG       CLOUDY    55  54  94 N10       29.68R
LYNN LAKE      CLOUDY    43  36  75 E6        29.62S
CHURCHILL      CLOUDY    39  36  87 NW20G28   29.60R
GILLAM         MOCLDY    45  37  76 NW12      29.62R
$$
                ***SASKATCHEWAN***

CITY           SKY/WX    TMP DP  RH WIND       PRES   REMARKS
ESTEVAN        CLEAR     55  52  88 W8        29.79R
KINDERSLEY     CLOUDY    59  46  63 N17G23    29.78R
LLOYDMINSTER   PTCLDY    52  45  76 W9        29.72R
PRINCE ALBERT  MOCLDY    55  52  88 SW7       29.66R
REGINA         PTCLDY    54  48  82 SW8       29.76R
YORKTON        PTCLDY    55  52  88 SW6       29.71S
N. BATTLEFORD  CLOUDY    61  48  63 W10G17    29.73R
LA RONGE       MOCLDY    59  54  82 SW6G29    29.57R
SASKATOON      MOCLDY    59  48  67 W8        29.74R
SWIFT CURRENT  CLEAR     57  46  67 SW6       29.80S
$$
NOTE: THESE ARE AUTOMATED STATIONS WITH LIMITED QUALITY CONTROL
      "FAIR" INDICATES FEW OR NO CLOUDS BELOW 12,000 FEET WITH NO
      SIGNIFICANT WEATHER AND/OR OBSTRUCTIONS TO VISIBILITY.
      SKY/WX - SKY CONDITION AND SIGNIFICANT WEATHER.
      TMP - AIR TEMPERATURE.    DP   - DEWPOINT TEMPERATURE.
      RH  - RELATIVE HUMIDITY.  PRES - PRESSURE.
      HX  - HEAT INDEX.         WCI  - WIND CHILL INDEX.
$



USA.gov is the U.S. government's official web portal to all federal, state and local government web resources and services.